AirNav  
 
 493 users online  

CL01 Eagle Field Airport
Dos Palos, California, USA

GOING TO DOS PALOS?


FAA INFORMATION EFFECTIVE 25 MARCH 2021

Location

FAA Identifier: CL01
Lat/Long: 36-53-59.8140N 120-40-03.6570W
36-53.996900N 120-40.060950W
36.8999483,-120.6676825
(estimated)
Elevation: 153 ft. / 47 m (estimated)
Variation: 15E (1985)
From city: 7 miles SW of DOS PALOS, CA
Time zone: UTC -7 (UTC -8 during Standard Time)
Zip code: 93622

Airport Operations

Airport use: Private use. Permission required prior to landing
Activation date: 11/1983
Control tower: no
ARTCC: OAKLAND CENTER
FSS: RANCHO MURIETA FLIGHT SERVICE STATION
Attendance: MON-FRI 1000-1700
Wind indicator: yes
Segmented circle: no

Airport Communications

WX AWOS-3 at LSN (14 nm NW): 118.675 (209-827-7084)

Nearby radio navigation aids

VOR radial/distance  VOR name  Freq  Var
PXNr010/12.3PANOCHE VORTAC112.6016E
HYPr199/23.1EL NIDO VOR/DME114.2015E

Airport Services

Runway Information

Runway 12/30

Dimensions: 2300 x 60 ft. / 701 x 18 m
Surface: asphalt, in good condition
RUNWAY 12  RUNWAY 30
Traffic pattern: rightright

Airport Ownership and Management from official FAA records

Ownership: Privately-owned
Owner: JOSEPH L. DAVIS
11100 W EAGLE AVE
FIREBAUGH, CA 93622
Phone (559) 269-7923
WORK PHONE 559-269-7923
Manager: JOE DAVIS
11100 W EAGLE AVE
FIREBAUGH, CA 93622
Phone (559) 269-7923

Airport Operational Statistics

Aircraft based on the field: 3
Single engine airplanes: 1
Multi engine airplanes: 1
Jet airplanes: 1
    

Additional Remarks

FOR CD CTC NORCAL APCH AT 916-361-0516.

Instrument Procedures

There are no published instrument procedures at CL01.

Some nearby airports with instrument procedures:

F34 - Firebaugh Airport (10 nm E)
KLSN - Los Banos Municipal Airport (14 nm NW)
KMCE - Merced Regional Airport/Macready Field (24 nm N)
KMAE - Madera Municipal Airport (27 nm E)
KMER - Castle Airport (29 nm N)
 
Loc | Ops | Rwys | IFR | FBO | Links
Com | Nav | Svcs | Stats | Notes
Area around CL01 (Eagle Field Airport)
 
Road maps at: MapQuest Bing Google
 
Aerial photo
WARNING: Photo may not be current or correct
Aerial photo of CL01 (Eagle Field Airport)
Do you have a better or more recent aerial photo of Eagle Field Airport that you would like to share? If so, please send us your photo.

 
Sectional chart

 
Airport distance calculator
Flying to Eagle Field Airport? Find the distance to fly.

From to CL01

Sunrise and sunset
Times for 14-Apr-2021
 Local
(UTC-7)
 Zulu
(UTC)
Morning civil twilight06:0413:04
Sunrise06:3113:31
Sunset19:3502:35
Evening civil twilight20:0203:02

Current date and time
Zulu (UTC)  15-Apr-2021 05:48:14
Local (UTC-7)  14-Apr-2021 22:48:14
 
METAR
KMCE 
24nm N 
150453Z AUTO 26004KT 10SM CLR 13/ A2995 RMK AO2 SLP143 T0128 $
KMAE 
27nm E 
150453Z AUTO 00000KT 10SM CLR 13/06 A2997 RMK AO2 SLP146 T01330056
KMER 
29nm N 
150515Z AUTO 32006KT 10SM CLR 12/07 A2998 RMK AO1
KCVH 
36nm W 
150535Z AUTO 00000KT 10SM CLR 10/06 A3005 RMK A01
KMOD 
45nm N 
150453Z AUTO 32008KT 10SM CLR 14/03 A2997 RMK AO2 SLP148 T01440033
KE16 
46nm W 
150535Z AUTO 15004KT 10SM CLR 10/07 A3005 RMK AO2 PWINO PNO
KFAT 
46nm E 
150453Z 00000KT 10SM SCT250 17/03 A2996 RMK AO2 SLP142 T01720028
KSNS 
47nm W 
150453Z AUTO 04004KT 9SM OVC019 11/07 A3003 RMK AO2 SLP179 T01060067
TAF
KMCE 
24nm N 
142020Z 1420/1518 30007KT P6SM FEW120 FM150300 VRB05KT P6SM SKC
KMER 
29nm N 
142020Z 1420/1518 VRB06KT P6SM FEW120 FM150300 VRB05KT P6SM SKC
NOTAMs
Click for the latest NOTAMs
NOTAMs are issued by the DoD/FAA and will open in a separate window not controlled by AirNav.

 

 
 

Things to do: Attractions on or near the airport

  
 Business Name 
 
 Contact 
 
 Services / Description 
 
Distance
 
Comments
  
Central California Historical Military Museum 209-392-8264
no information available

If you are affiliated with Central California Historical Military Museum and would like to show here your services, contact info, web link, logo, and more, click here
on airport  
   write
 

Would you like to see your business listed on this page?

 If your business provides an interesting product or service to pilots, flight crews, aircraft, or users of the Eagle Field Airport, you should consider listing it here.  To start the listing process, click on the button below
 
Add a business
 

Other Pages about Eagle Field Airport

www.eaglefield.org
 
Update a link
 
Copyright © AirNav, LLC. All rights reserved. Privacy Policy  Contact